TimeCDT,TemperatureF,Dew PointF,Humidity,Sea Level PressureIn,VisibilityMPH,Wind Direction,Wind SpeedMPH,Gust SpeedMPH,PrecipitationIn,Events,Conditions,WindDirDegrees,DateUTC
12:15 AM,23.9,18.3,79,30.30,10.0,Calm,Calm,-,N/A,,Clear,0,2012-10-07 05:15:00
12:35 AM,22.5,16.9,79,30.29,10.0,Calm,Calm,-,N/A,,Clear,0,2012-10-07 05:35:00
12:55 AM,22.6,18.1,83,30.29,10.0,Calm,Calm,-,N/A,,Clear,0,2012-10-07 05:55:00
1:15 AM,21.4,16.7,82,30.29,10.0,SW,3.5,-,N/A,,Clear,230,2012-10-07 06:15:00
1:35 AM,19.9,16.2,85,30.28,10.0,Calm,Calm,-,N/A,,Clear,0,2012-10-07 06:35:00
1:55 AM,19.8,16.3,87,30.28,10.0,SW,3.5,-,N/A,,Clear,220,2012-10-07 06:55:00
2:15 AM,19.6,16.3,87,30.28,10.0,Calm,Calm,-,N/A,,Clear,0,2012-10-07 07:15:00
2:35 AM,19.2,15.8,87,30.28,10.0,Calm,Calm,-,N/A,,Clear,0,2012-10-07 07:35:00
2:55 AM,18.5,15.6,89,30.27,10.0,South,3.5,-,N/A,,Clear,190,2012-10-07 07:55:00
3:15 AM,18.9,16.0,89,30.27,10.0,Calm,Calm,-,N/A,,Clear,0,2012-10-07 08:15:00
3:35 AM,19.2,16.3,89,30.26,10.0,SSW,3.5,-,N/A,,Clear,210,2012-10-07 08:35:00
3:55 AM,17.6,15.1,90,30.26,10.0,SSW,3.5,-,N/A,,Clear,210,2012-10-07 08:55:00
4:15 AM,18.5,16.2,91,30.26,10.0,SSW,4.6,-,N/A,,Clear,210,2012-10-07 09:15:00
4:35 AM,20.1,17.8,91,30.25,10.0,Calm,Calm,-,N/A,,Clear,0,2012-10-07 09:35:00
4:55 AM,19.2,16.0,87,30.25,10.0,Calm,Calm,-,N/A,,Clear,0,2012-10-07 09:55:00
5:15 AM,19.2,16.5,89,30.24,10.0,Calm,Calm,-,N/A,,Clear,0,2012-10-07 10:15:00
5:35 AM,19.0,16.5,90,30.24,10.0,Calm,Calm,-,N/A,,Clear,0,2012-10-07 10:35:00
5:55 AM,18.9,17.4,94,30.23,10.0,Calm,Calm,-,N/A,,Clear,0,2012-10-07 10:55:00
6:15 AM,19.4,16.7,89,30.23,10.0,Calm,Calm,-,N/A,,Clear,0,2012-10-07 11:15:00
6:35 AM,17.2,15.4,93,30.24,10.0,SSW,4.6,-,N/A,,Clear,210,2012-10-07 11:35:00
6:55 AM,16.7,14.7,92,30.23,10.0,Calm,Calm,-,N/A,,Clear,0,2012-10-07 11:55:00
7:15 AM,17.4,15.4,92,30.23,10.0,SSW,4.6,-,N/A,,Clear,200,2012-10-07 12:15:00
7:35 AM,17.2,15.3,92,30.23,10.0,Calm,Calm,-,N/A,,Clear,0,2012-10-07 12:35:00
7:55 AM,20.7,18.9,93,30.22,10.0,South,3.5,-,N/A,,Clear,190,2012-10-07 12:55:00
8:15 AM,22.8,19.9,89,30.22,10.0,SSW,3.5,-,N/A,,Clear,200,2012-10-07 13:15:00
8:55 AM,30.4,24.6,79,30.22,10.0,SSW,3.5,-,N/A,,Clear,200,2012-10-07 13:55:00
9:15 AM,33.8,27.1,77,30.21,10.0,SW,4.6,-,N/A,,Clear,230,2012-10-07 14:15:00
9:35 AM,37.4,28.6,70,30.20,10.0,WSW,6.9,-,N/A,,Clear,250,2012-10-07 14:35:00
9:55 AM,40.6,29.1,64,30.20,10.0,WSW,9.2,-,N/A,,Clear,250,2012-10-07 14:55:00
10:15 AM,43.2,29.3,58,30.19,10.0,WSW,8.1,-,N/A,,Clear,240,2012-10-07 15:15:00
10:35 AM,45.7,29.7,54,30.19,10.0,SW,9.2,-,N/A,,Clear,220,2012-10-07 15:35:00
10:55 AM,47.3,28.9,49,30.18,10.0,WSW,9.2,-,N/A,,Clear,240,2012-10-07 15:55:00
11:15 AM,49.3,28.2,44,30.17,10.0,WSW,11.5,16.1,N/A,,Clear,240,2012-10-07 16:15:00
11:35 AM,50.2,27.5,42,30.17,10.0,WSW,17.3,25.3,N/A,,Clear,250,2012-10-07 16:35:00
11:55 AM,50.5,27.3,41,30.16,10.0,WSW,13.8,21.9,N/A,,Clear,250,2012-10-07 16:55:00
12:35 PM,53.4,26.2,35,30.14,10.0,West,15.0,24.2,N/A,,Clear,260,2012-10-07 17:35:00
12:55 PM,54.1,24.8,32,30.12,10.0,West,17.3,26.5,N/A,,Clear,260,2012-10-07 17:55:00
1:15 PM,54.3,23.5,30,30.12,10.0,WSW,20.7,26.5,N/A,,Clear,250,2012-10-07 18:15:00
1:35 PM,55.4,24.1,30,30.10,10.0,WSW,15.0,23.0,N/A,,Clear,250,2012-10-07 18:35:00
1:55 PM,55.8,22.6,28,30.08,10.0,SW,16.1,31.1,N/A,,Clear,230,2012-10-07 18:55:00
2:15 PM,56.7,23.7,28,30.06,10.0,SW,17.3,27.6,N/A,,Clear,230,2012-10-07 19:15:00
2:35 PM,57.2,22.6,26,30.05,10.0,WSW,19.6,-,N/A,,Clear,250,2012-10-07 19:35:00
2:55 PM,57.4,21.2,25,30.04,10.0,WSW,15.0,23.0,N/A,,Clear,240,2012-10-07 19:55:00
3:15 PM,58.1,21.2,24,30.03,10.0,SW,12.7,26.5,N/A,,Clear,230,2012-10-07 20:15:00
3:35 PM,58.3,20.8,23,30.02,10.0,SW,17.3,24.2,N/A,,Clear,220,2012-10-07 20:35:00
3:55 PM,58.3,20.5,23,30.02,10.0,WSW,12.7,25.3,N/A,,Clear,240,2012-10-07 20:55:00
4:15 PM,58.6,20.8,23,30.01,10.0,SW,13.8,20.7,N/A,,Clear,220,2012-10-07 21:15:00
4:35 PM,58.6,20.5,23,30.00,10.0,WSW,15.0,24.2,N/A,,Clear,240,2012-10-07 21:35:00
4:55 PM,59.0,21.4,23,30.00,10.0,SW,16.1,21.9,N/A,,Clear,220,2012-10-07 21:55:00
5:15 PM,58.3,21.2,24,29.99,10.0,WSW,11.5,15.0,N/A,,Clear,240,2012-10-07 22:15:00
5:35 PM,58.3,20.3,23,29.98,10.0,SW,17.3,21.9,N/A,,Clear,230,2012-10-07 22:35:00
5:55 PM,57.7,20.3,23,29.98,10.0,SW,12.7,-,N/A,,Clear,220,2012-10-07 22:55:00
6:15 PM,57.2,20.7,24,29.97,10.0,SW,15.0,18.4,N/A,,Clear,230,2012-10-07 23:15:00
6:35 PM,55.6,21.2,26,29.97,10.0,SW,10.4,-,N/A,,Clear,220,2012-10-07 23:35:00
6:55 PM,52.3,22.1,31,29.96,10.0,SSW,11.5,-,N/A,,Clear,200,2012-10-07 23:55:00
7:15 PM,50.9,23.0,34,29.96,10.0,SSW,11.5,-,N/A,,Clear,200,2012-10-08 00:15:00
7:55 PM,47.8,23.5,39,29.96,10.0,SSW,10.4,-,N/A,,Clear,200,2012-10-08 00:55:00
8:15 PM,46.6,23.7,41,29.96,10.0,SSW,10.4,-,N/A,,Clear,200,2012-10-08 01:15:00
8:35 PM,46.0,24.4,43,29.96,10.0,South,9.2,-,N/A,,Clear,190,2012-10-08 01:35:00
8:55 PM,44.6,24.8,46,29.96,10.0,South,10.4,-,N/A,,Clear,190,2012-10-08 01:55:00
9:15 PM,44.1,25.5,48,29.96,10.0,SSW,10.4,-,N/A,,Clear,200,2012-10-08 02:15:00
9:35 PM,43.7,25.9,50,29.96,10.0,SSW,9.2,-,N/A,,Clear,200,2012-10-08 02:35:00
9:55 PM,43.7,26.6,51,29.96,10.0,SSW,8.1,-,N/A,,Clear,210,2012-10-08 02:55:00
10:15 PM,44.1,27.1,51,29.96,10.0,SW,8.1,-,N/A,,Clear,230,2012-10-08 03:15:00
10:35 PM,43.7,27.5,53,29.96,10.0,SW,10.4,-,N/A,,Clear,220,2012-10-08 03:35:00
10:55 PM,43.7,27.5,53,29.95,10.0,SW,8.1,-,N/A,,Clear,220,2012-10-08 03:55:00
11:15 PM,43.2,27.5,54,29.95,10.0,SSW,8.1,-,N/A,,Clear,210,2012-10-08 04:15:00
11:35 PM,44.2,28.4,54,29.95,10.0,SW,12.7,-,N/A,,Clear,220,2012-10-08 04:35:00
11:55 PM,44.2,28.4,54,29.94,10.0,SW,10.4,-,N/A,,Clear,220,2012-10-08 04:55:00